Погода в Апингтоне

ЮАР     28°27′32″S   21°13′04″E
темп.,
°C
ветер,
м/с
пор.,
м/с
влажн.,
%
обл.,
%
осадки,
мм/ч
давл.,
гПа
погр.,
м
20 апреля, вт
вт2023:00+23зсз22295 0.0 101811
02:00+22ссз22297 0.0 101811
05:00+20с2231100 0.0 101811
08:00+22с232890 0.0 102055
11:00+27ссз23205 0.0 10191199
14:00+30ссз44175 0.0 10163198
17:00+30ссз33165 0.0 10153370
20:00+25сз34214 0.0 101722
21 апреля, ср
ср2123:00+22с33234 0.0 101822
02:00+20с45255 0.0 101851
05:00+19с47290 0.0 101881
08:00+20с512274 0.0 1019272
11:00+28ссз1010161 0.0 10191318
14:00+30ссз781317 0.0 10163218
17:00+29ссз6613100 0.0 10153163
20:00+24с5719100 0.0 101774
22 апреля, чт
чт2223:00+22ссв592064 0.0 1017113
02:00+20ссв59260 0.0 1017103
05:00+18ссв46340 0.0 101766
08:00+19ссв310350 0.0 1019243
11:00+28ссз87180 0.0 10181652
14:00+30ссз54140 0.0 10153044
17:00+30ссз43140 0.0 10143174
20:00+24с55200 0.0 101645
23 апреля, пт
пт2323:00+23ссв56220 0.0 101660
02:00+21ссв44250 0.0 101640
05:00+19ссв34280 0.0 101622
08:00+20с34270 0.0 101894
11:00+29с44160 0.0 10161069
14:00+31с32130 0.0 10133383
17:00+30ссз22130 0.0 10123357
20:00+25ссз34180 0.0 101316
24 апреля, сб
сб2423:00+23с44210 0.0 101324
02:00+21с33230 0.0 101318
05:00+19зюз23270 0.0 101411
08:00+21с22240 0.0 101526
11:00+28ссз46160 0.0 10141013
14:00+31с55120 0.0 10113153
17:00+30сз44120 0.0 10103395
20:00+25с44185 0.0 101229